Weather in Bigadic

Turkey     39°23′34″N   28°07′52″E
temp.,
°C
wind,
m/s
gust,
m/s
humid.,
%
clouds,
%
prec.,
mm/h
press.,
hPa
HPBL,
m
17 september, fri
fri1700:00+15e11670 0.0 101811
03:00+14e22710 0.0 101814
06:00+13ese22740 0.0 101718
09:00+19e01510 0.0 1017254
12:00+27nnw25280 0.0 10151756
15:00+30nnw56190 0.0 10132377
18:00+28n34240 0.0 10121548
21:00+21ese32346 0.0 101322
18 september, sat
sat1800:00+20ese22375 0.0 101418
03:00+19ese22405 0.0 101315
06:00+19ese22424 0.0 101318
09:00+25s22305 0.0 1012284
12:00+31wsw5723100 0.0 10121806
15:00+34w79200 0.0 10103438
18:00+31w79240 0.0 10092135
21:00+23sse22403 0.0 101215
19 september, sun
sun1900:00+23sse22415 0.0 101213
03:00+20ese22490 0.0 101212
06:00+20se22500 0.0 101216
09:00+24sw12380 0.0 1013295
12:00+31wnw48260 0.0 10131988
15:00+33w710217 0.0 10113406
18:00+31w57233 0.0 10102281
21:00+23se224131 0.1 101318
20 september, mon
mon2000:00+23sse224320 0.1 101426
03:00+21se32479 0.1 101222
06:00+20se22490 0.0 101215
09:00+26ssw12350 0.0 1013280
12:00+31wnw35250 0.0 10131982
15:00+34w57194 0.0 10113575
18:00+29n66330 0.0 1011821
21:00+22ene11520 0.0 101411
21 september, tue
tue2100:00+21ese11567 0.0 101511
03:00+20ese21595 0.0 101511
06:00+19ese225979 0.0 101516
09:00+25ese12415 0.0 1015254
12:00+32w33226 0.0 10141545
15:00+34wsw351799 0.0 10123435
18:00+31nw6922100 0.0 10121403
21:00+22n225095 0.0 101513